Location: Broekland
(52.3610°N, 6.2005°E)
Time: 20:39:39
(UTC+00:00)

CENTAUR R/B - Pass Details

Date: 19 May 2025
Orbit: 644 x 1537 km, 63.4° (Epoch: 20 June)

Event Time Altitude Azimuth Distance (km) Brightness Sun altitude
Rises 21:21:25 0° 304° (NW) 3,881 6.9 -12.3°
Reaches altitude 10° 21:24:02 10° 311° (NW) 3,048 6.3 -12.5°
Maximum altitude 21:31:14 47° 24° (NNE) 1,695 4.0 -13.1°
Drops below altitude 10° 21:39:48 10° 96° (E) 3,605 5.1 -13.7°
Sets 21:43:08 0° 102° (ESE) 4,645 5.7 -13.9°
